This demonstration page uses our WeatherBlox Daily Observations layout. Learn more.

Left ArrowRight Arrow

39.01783, -85.05884

Hourly Observations for August 23, 2017

Temp ( °F °C ) Dew Point ( °F °C ) Humidity (%) Winds ( mph kmh ) Pressure ( in mb ) Visibility ( mi km ) Precip ( " mm )
12:52 am 00:52 Mostly Cloudy 71 21.7 67 19.4 87 87 NNW 9 15 29.94 1014 10 16 0.00 0.00
1:52 am 01:52 Mostly Cloudy 70 21.1 66 18.9 87 87 NW 7 11 29.95 1014 10 16 0.00 0.00
2:52 am 02:52 Partly Cloudy 69 20.6 65 18.3 87 87 N 12 19 29.95 1014 10 16 0.00 0.00
3:52 am 03:52 Mostly Cloudy 68 20 62 16.7 81 81 N 9 15 29.95 1014 10 16 0.00 0.00
4:52 am 04:52 Mostly Clear 66 18.9 62 16.7 87 87 N 5 7 29.96 1015 10 16 0.00 0.00
5:52 am 05:52 Mostly Clear 65 18.3 61 16.1 87 87 N 7 11 29.96 1015 10 16 0.00 0.00
6:52 am 06:52 Mostly Clear 63 17.2 59 15 87 87 N 7 11 29.98 1015 10 16 0.00 0.00
7:52 am 07:52 Mostly Sunny 64 17.8 60 15.6 87 87 N 5 7 29.99 1016 10 16 0.00 0.00
8:52 am 08:52 Mostly Sunny 67 19.4 60 15.6 79 79 N 6 9 30.00 1016 10 16 0.00 0.00
9:52 am 09:52 Sunny 70 21.1 58 14.4 66 66 NNE 7 11 30.01 1016 10 16 0.00 0.00
10:52 am 10:52 Mostly Sunny 74 23.3 55 12.8 52 52 N 9 15 30.01 1016 10 16 0.00 0.00
11:52 am 11:52 Mostly Sunny 74 23.3 54 12.2 50 50 W 3 6 30.02 1017 10 16 0.00 0.00
12:52 pm 12:52 Partly Cloudy 76 24.4 55 12.8 48 48 NW 7 11 30.01 1016 10 16 0.00 0.00
1:52 pm 13:52 Mostly Cloudy 75 23.9 55 12.8 50 50 NW 8 13 30.01 1016 10 16 0.00 0.00
2:52 pm 14:52 Mostly Cloudy 78 25.6 55 12.8 45 45 NNW 8 13 29.99 1016 10 16 0.00 0.00
3:52 pm 15:52 Mostly Cloudy 78 25.6 56 13.3 47 47 NW 6 9 29.98 1015 10 16 0.00 0.00
4:52 pm 16:52 Mostly Cloudy 79 26.1 57 13.9 47 47 NNW 9 15 29.97 1015 10 16 0.00 0.00
5:52 pm 17:52 Partly Cloudy 77 25 54 12.2 45 45 NNW 9 15 29.97 1015 10 16 0.00 0.00
6:52 pm 18:52 Mostly Sunny 77 25 54 12.2 45 45 NNW 9 15 29.96 1015 10 16 0.00 0.00
7:52 pm 19:52 Mostly Sunny 74 23.3 52 11.1 46 46 NNW 8 13 29.96 1015 10 16 0.00 0.00
8:52 pm 20:52 Clear 70 21.1 54 12.2 57 57 NW 8 13 29.97 1015 10 16 0.00 0.00
9:52 pm 21:52 Clear 68 20 55 12.8 63 63 NNW 9 15 29.98 1015 10 16 0.00 0.00
10:52 pm 22:52 Clear 67 19.4 54 12.2 63 63 NNW 8 13 29.98 1015 10 16 0.00 0.00
11:52 pm 23:52 Clear 66 18.9 54 12.2 65 65 NNW 8 13 29.99 1016 10 16 0.00 0.00

Powered by AerisWeather